Regional Weather Roundup
Issued by NWS

Home | Current Version | Previous Version | Text Only | Print | Product List | Glossary On
Versions: 1 2 3 4 5 6 7 8 9 10 11 12 13 14 15 16 17 18 19 20 21 22 23 24 25 26 27 28 29 30 31 32 33 34 35 36 37 38 39 40 41 42 43 44 45 46 47 48 49 50
000
ASUS43 KLOT 241307
RWRIL

ILLINOIS REGIONAL WEATHER ROUNDUP
NATIONAL WEATHER SERVICE CHICAGO/ROMEOVILLE IL
800 AM CDT FRI MAR 24 2017

NOTE: "FAIR" INDICATES FEW OR NO CLOUDS BELOW 12,000 FEET WITH NO
SIGNIFICANT WEATHER AND/OR OBSTRUCTIONS TO VISIBILITY.

* THESE STATIONS ARE NOT UNDER NWS QUALITY CONTROL. THEY ALSO MAY NOT
  REPORT WEATHER SUCH AS PRECIPITATION OR FOG.

ILZ001-002-007-009-015-016-024-241400-
NORTHWEST ILLINOIS

CITY           SKY/WX    TMP DP  RH WIND       PRES   REMARKS
MOLINE         CLOUDY    57  46  66 S15G22    29.86R
STERLING*      SUNNY     51  45  79 VRB3      29.89R
SAVANNA*       MOSUNNY   50  45  83 S5        29.86S
$$

ILZ003-004-008-010-011-017-018-241400-
NORTH CENTRAL ILLINOIS

CITY           SKY/WX    TMP DP  RH WIND       PRES   REMARKS
ROCKFORD       CLOUDY    49  43  80 S9        29.91R
FREEPORT*      CLOUDY    50  45  80 S20       29.87R
ROCHELLE*      CLOUDY    49  44  81 S16       29.90R
DE KALB*       MOSUNNY   47  43  84 S16       29.92R
PERU*          SUNNY     49  43  79 S14       29.93S
$$

ILZ005-006-012>014-019>023-241400-
NORTHEAST ILLINOIS

CITY           SKY/WX    TMP DP  RH WIND       PRES   REMARKS
CHICAGO-OHARE  CLOUDY    55  45  68 S15       29.91S
CHICAGO-MIDWAY PTSUNNY   55  46  71 S14G23    29.94S
AURORA         SUNNY     48  42  80 S9        29.93R
LANSING*       CLOUDY    53  47  82 S15G22    29.97S
JOLIET*        SUNNY     56  48  74 S14G20    29.95R
WAUKEGAN       MOSUNNY   53  45  74 SW16G23   29.88S
DUPAGE AIRPORT SUNNY     50  45  83 S15       29.92R
KANKAKEE*      SUNNY     53  46  75 S16       29.99S
WHEELING       CLOUDY    54  47  77 S12       29.92S
MORRIS*        SUNNY     54  47  75 S16       29.93S
ROMEOVILLE*    SUNNY     55  49  83 S17G26    29.94S
NORTHERLY ISL    N/A     55  44  66 S15         N/A
$$

LMZ740>746-241400-
SOUTHERN LAKE MICHIGAN

STATION/POSITION SKY/WX   TEMP    WIND        PRES    VSBY  WAVE
                          AIR SEA DIR/SP/G                  HT/PER
                          (F)     (DEG/KT/KT) (MB)    (MI)  (FT/S)
HARRISON CRIB              55     210/ 29/ 33   N/A
BURNHAM HARBOR             56     210/ 13/ 17   N/A
CALUMET HARBOR             54     190/ 12/ 17 1013.3R
BURNS HARBOR               55     190/ 22/ 28 1014.6S
MICHIGAN CITY              56     170/ 23/ 30   N/A
$$

ILZ025>027-034>036-040-047-049-050-058-095>099-241400-
WEST-CENTRAL ILLINOIS

CITY           SKY/WX    TMP DP  RH WIND       PRES   REMARKS
QUINCY         SUNNY     58  49  72 S13       29.92R
GALESBURG*     SUNNY     48  44  85 SE6       29.91R
MACOMB*        CLOUDY    54  47  79 S12       29.93R
JACKSONVILLE*  SUNNY     56  48  74 S10       29.97S
PITTSFIELD*    SUNNY     54  49  81 S9        29.96S
$$

ILZ028>032-037-038-041>044-048-051>054-059>061-241400-
CENTRAL ILLINOIS

CITY           SKY/WX    TMP DP  RH WIND       PRES   REMARKS
PONTIAC        SUNNY     55  48  79 S16       29.98S
BLOOMINGTON    CLOUDY    51  46  83 S17       29.98F
DECATUR        SUNNY     52  46  80 S12       30.03S
PEORIA         SUNNY     51  46  83 S10       29.95S
LACON*         SUNNY     51  45  80 S6        29.93S
LINCOLN*       SUNNY     52  48  86 S14       29.99S
SPRINGFIELD    SUNNY     56  48  74 S14       29.99F
TAYLORVILLE    SUNNY     52  48  87 S9        30.02F
$$

ILZ033-039-045-046-055>057-062-063-241400-
EAST-CENTRAL ILLINOIS

CITY           SKY/WX    TMP DP  RH WIND       PRES   REMARKS
CHAMPAIGN      SUNNY     54  46  74 S13       30.05S
RANTOUL*       SUNNY     56  49  78 S16       30.03F
MATTOON        SUNNY     55  49  80 S10       30.07R
PARIS*         MOSUNNY   54  48  81 S12       30.10R
$$

ILZ079-100>102-241400-
SOUTHWEST ILLINOIS

CITY           SKY/WX    TMP DP  RH WIND       PRES   REMARKS
ALTON          SUNNY     46  46 100 SE9       30.03S
BELLEVILLE     SUNNY     55  55  99 SE6       30.04R
CAHOKIA*       SUNNY     54  49  83 SE5       30.03R
SPARTA*        MOSUNNY   61  54  76 S8        30.08R
$$

ILZ064>066-069>071-074>076-080>082-084>086-088>090-092>094-241400-
SOUTH-CENTRAL ILLINOIS

CITY           SKY/WX    TMP DP  RH WIND       PRES   REMARKS
CARBONDALE     MOSUNNY   63  57  81 S18       30.07R
CAIRO*         SUNNY     63  57  81 S17G24    30.11R
EFFINGHAM*     SUNNY     55  51  85 SE5       30.11R
MT. VERNON     SUNNY     61  55  81 S8        30.09R
CENTRALIA*     MOSUNNY   59  54  83 S7        30.08R
SALEM*         SUNNY     60  52  74 S5        30.08R
METROPOLIS*    SUNNY     64  56  77 S9G17     30.13R
$$

ILZ067-068-072-073-078-083-087-091-241400-
SOUTHEAST ILLINOIS

CITY           SKY/WX    TMP DP  RH WIND       PRES   REMARKS
LAWRENCEVILLE  SUNNY     56  50  80 S7        30.12R
FLORA*         SUNNY     57  52  85 S6        30.10R
FAIRFIELD*     MOSUNNY   60  54  80 S7        30.09R
HARRISBURG*    SUNNY     64  57  79 S16G24    30.10R
ROBINSON*      SUNNY     55  49  80 S12       30.11R
CARMI*         SUNNY     61  55  82 S14       30.11R
$$

ABBREVIATIONS USED IN REMARKS
   TC - TEMPERATURE IN CELSIUS
  WCI - WIND CHILL INDEX
   HX - HEAT INDEX
  VSB - VISIBILITY
$$




USA.gov is the U.S. government's official web portal to all federal, state and local government web resources and services.